Location: Castillo de Bayuela
(40.1003°N, 4.6856°W)
Time: 07:57:59
(UTC+00:00)

Daily predictions for brighter satellites

Satellite Brightness Start Highest point End
(mag) Time Altitude Azimuth Time Altitude Azimuth Time Altitude Azimuth
Cosmos 1975 Rocket 3.3 20:04:58 10° SSE 20:09:16 49° E 20:13:35 10° NNE
Cosmos 2154 Rocket 4.1 20:03:14 10° S 20:09:31 69° E 20:15:50 10° NNE
Okean 1 Rocket 3.7 20:05:09 10° NNW 20:09:34 61° W 20:13:57 10° S
Meteor 1-21 Rocket 4.3 20:04:58 10° S 20:10:30 90° WNW 20:16:04 10° N
SJ-6B 4.4 20:07:58 10° SSW 20:11:32 35° W 20:15:10 10° NNW
Cosmos 1437 Rocket 4.1 20:09:33 10° SE 20:12:05 18° E 20:14:37 10° NE
Cosmos 1048 Rocket 4.2 20:07:22 10° NNW 20:12:44 79° WSW 20:18:05 10° SSE
ISS -1.2 20:13:42 10° NNW 20:15:40 15° NNE 20:17:38 10° NE
Meteor 2-1 Rocket 4.5 20:14:58 10° N 20:20:21 49° ENE 20:25:38 10° SSE
BREEZE-M DEB (TANK) 4.4 20:18:16 10° NW 20:20:36 14° N 20:22:10 10° NNE
OAO 3 Rocket 3.9 20:17:19 10° SW 20:21:23 31° SSE 20:25:27 10° ESE
Cosmos 220 Rocket 4.2 20:18:26 10° N 20:22:32 54° ENE 20:26:39 10° SSE
H-2A R/B 2.7 20:19:32 10° SW 20:22:57 21° S 20:25:44 11° SE
GENESIS II 3.9 20:21:35 10° NNW 20:25:09 83° ENE 20:28:36 10° SE
In-Cosmos 22 Rocket 4.2 20:21:17 10° S 20:26:58 87° E 20:32:33 10° N
ATLAS CENTAUR R/B 3.3 20:24:42 10° WNW 20:28:07 26° WSW 20:31:37 10° S
Cosmos 2298 Rocket 4.0 20:23:22 10° S 20:28:38 69° ESE 20:33:55 10° NNE
CZ-2C R/B 4.3 20:25:09 10° SSE 20:29:13 69° E 20:51:23 10° N
GP-B 3.2 20:26:43 10° N 20:31:08 82° W 20:35:31 10° S
Cosmos 1606 2.9 20:29:35 10° N 20:32:59 44° E 20:36:06 12° SSE
Meteor 1-11 4.2 20:27:24 10° S 20:33:05 76° E 20:38:44 10° NNE
Cosmos 1125 Rocket 4.4 20:31:45 10° SW 20:36:55 53° WNW 20:42:07 10° N
CZ-4 R/B 3.6 20:34:38 10° SSW 20:37:54 24° W 20:41:08 10° NW
Cosmos 1833 Rocket 2.7 20:38:10 10° NNW 20:43:50 75° ENE 20:48:52 13° SSE
NOSS 3-1 (A) 3.2 20:39:58 10° S 20:44:25 42° ESE 20:49:30 10° NE
SL-8 Rocket 4.3 20:39:31 10° SSE 20:45:28 47° E 20:51:28 10° NNE
ULPM Upper Stage 4.5 20:42:03 10° N 20:45:30 22° NE 20:48:42 11° E
ARGOS Delta rocket 4.2 20:45:54 10° S 20:50:42 69° W 20:55:49 10° NNW
DELTA 2 DEB (DPAF) 4.5 20:47:56 10° N 20:52:04 62° WNW 20:56:11 10° SSW
Nadezhda 3 Rocket 4.3 20:46:17 10° NNW 20:52:24 71° W 20:58:32 10° S
ERS-1 Rocket 3.6 20:49:38 16° SE 20:53:11 40° ENE 20:57:50 10° N
Cosmos 614 Rocket 4.0 20:51:57 10° NNW 20:56:57 60° ENE 21:00:30 19° SE
Okean O Rocket 2.8 20:58:57 10° SSW 21:02:59 39° W 21:07:02 10° NNW
Cosmos 2084 Rocket 3.9 21:00:04 10° NNW 21:03:50 42° NE 21:05:50 23° ESE
Cosmos 1869 3.5 21:03:09 10° NNW 21:07:00 67° W 21:10:13 14° S
Cosmos 864 Rocket 4.5 21:04:15 10° S 21:10:22 64° E 21:16:28 10° NNE
Resurs 01 Rocket 3.9 21:08:09 10° SW 21:11:29 21° W 21:14:51 10° NW
ATLAS 3B R/B 2.8 21:06:47 10° SSW 21:13:41 67° ESE 21:21:10 10° NE
Cosmos 2098 4.0 21:12:37 23° S 21:14:30 79° E 21:17:29 10° N
USA 229 DEB 4.4 21:13:01 22° SE 21:14:33 25° ESE 21:19:33 10° ENE
USA 229 4.4 21:13:14 22° SE 21:14:40 24° ESE 21:19:38 10° ENE
Cosmos 2082 Rocket 3.0 21:09:37 10° N 21:14:50 37° ENE 21:17:46 22° ESE
Cosmos 1943 Rocket 2.1 21:10:14 10° S 21:15:49 65° ESE 21:21:23 10° NNE
USA 305 4.2 21:13:24 10° NNW 21:16:27 24° NNE 21:18:10 16° ENE
Cosmos 2278 Rocket 2.3 21:11:26 10° SSW 21:17:05 78° WNW 21:22:47 10° NNE
Spot 2 Rocket 3.8 21:14:27 24° SE 21:17:13 50° ENE 21:22:07 10° N
Terra 1.8 21:20:36 27° SSE 21:23:04 66° ENE 21:27:46 10° N
Cosmos 1544 Rocket 3.9 21:20:53 10° NNW 21:25:08 61° W 21:28:06 19° S
USA 245 4.4 21:24:17 22° SSE 21:28:40 84° ENE 21:34:41 10° N
Cosmos 2218 Rocket 3.9 21:24:08 11° S 21:30:09 88° E 21:36:23 10° N
SPOT 3 Rocket 3.8 21:28:25 30° SE 21:30:50 56° ENE 21:35:56 10° N
USA 290 3.5 21:29:19 10° SW 21:32:18 40° WNW 21:35:18 10° N
USA 215 3.7 21:28:46 20° ESE 21:33:15 56° NE 21:39:38 10° NW
SPOT 5 3.7 21:29:29 15° S 21:33:33 50° W 21:38:39 10° NNW
IRS-1C Rocket 4.3 21:30:57 22° S 21:34:26 71° WSW 21:39:42 10° NNW
CZ-4C R/B 4.2 21:32:17 10° N 21:35:36 40° WNW 21:38:45 10° SW
Cosmos 2228 3.4 21:32:19 10° NNW 21:36:26 59° W 21:38:40 25° SSW
MOS 1 Rocket 3.1 21:34:52 31° S 21:36:58 84° WSW 21:41:20 10° NNW
Cosmos 1892 Rocket 4.3 21:39:29 33° E 21:39:47 34° E 21:43:47 10° NNE
Cosmos 192 4.5 21:38:40 35° SSE 21:40:25 53° ESE 21:45:14 10° NNE
SL-8 R/B 3.8 21:36:09 10° WSW 21:40:55 75° NNW 21:45:44 10° ENE
Okean-O 4.4 21:39:39 10° SSW 21:43:22 27° W 21:47:06 10° NW
Cosmos 1812 3.9 21:41:31 10° NNE 21:44:11 26° ENE 21:44:11 26° ENE
Lacrosse 5 rocket 2.3 21:46:15 28° ENE 21:46:15 28° ENE 21:48:17 10° NE
Ariane Rocket 2.9 21:43:05 36° SSE 21:45:14 82° ENE 21:50:18 10° NNW
Meteor 1-27 4.4 21:43:28 10° NNW 21:49:01 69° W 21:52:06 27° S
ISS -3.3 21:49:44 10° NW 21:52:59 52° NNE 21:53:03 52° NE
Cosmos 2058 3.9 21:55:22 31° ENE 21:55:22 31° ENE 21:58:27 10° NNE
Landsat 5 3.7 21:51:03 10° NNE 21:55:16 48° E 21:55:18 48° ESE
Cosmos 1726 Rocket 3.7 21:52:08 10° N 21:56:21 51° E 21:56:43 50° E
Cosmos 1606 Rocket 3.4 21:53:19 10° N 21:57:38 75° E 21:58:17 61° SE
Cosmos 1932 4.4 21:51:40 10° NNW 21:57:53 73° ENE 22:00:14 40° SE
Cosmos 1821 Rocket 4.0 21:56:43 26° S 22:00:32 89° W 22:06:57 10° N
H-2A R/B 3.4 21:58:02 10° WSW 21:58:46 13° SW 21:58:46 13° SW
Cosmos 1656 Rocket 4.1 22:01:48 38° ESE 22:01:50 38° ESE 22:06:55 10° NE
OAO 3 Rocket 3.6 21:59:49 10° WSW 22:03:32 42° SSW 22:03:32 42° SSW
Geosat 4.0 22:00:12 10° NE 22:05:08 55° ESE 22:05:42 52° SE
Cosmos 1727 Rocket 3.9 22:00:18 10° N 22:06:38 83° E 22:09:01 41° SSE
COSMOS 2406 3.1 22:03:12 10° NNW 22:08:53 80° ENE 22:10:26 50° SE
MINOTAUR IV R/B 4.5 22:07:46 48° SSW 22:08:59 85° WNW 22:13:29 10° NNE
BREEZE-M DEB (TANK) 2.7 22:01:38 10° WNW 22:10:38 63° SW 22:11:08 58° S
USA 307 3.2 22:07:41 10° NW 22:11:24 44° NE 22:11:25 44° NE
Alouette 2 Rocket 4.1 22:12:52 50° ESE 22:13:06 51° E 22:18:57 10° NNE
MetOp-A 3.6 22:14:52 60° E 22:14:58 61° ENE 22:19:03 10° N
Cosmos 407 Rocket 3.9 22:18:01 10° N 22:23:04 47° ENE 22:23:40 45° E
ULPM Upper Stage 3.3 22:20:56 10° NW 22:25:03 47° WSW 22:25:03 47° WSW
Cosmos 1241 Rocket 4.5 22:18:39 10° NNW 22:25:08 81° ENE 22:26:56 51° SE
Spot 1 4.4 22:20:16 10° NNE 22:25:19 81° WNW 22:26:25 55° SSW
Cosmos 1140 Rocket 3.3 22:22:05 10° NNW 22:27:14 80° ENE 22:27:48 69° SE
Milstar 3 3.9 22:23:42 10° SW 22:30:51 39° SSE 22:42:32 10° ESE
CZ-4C R/B 3.1 22:24:12 10° NNW 22:31:38 72° NE 22:34:57 41° SE
Cosmos 1271 Rocket 4.3 22:36:00 27° NE 22:36:00 27° NE 22:37:59 10° NNE
Cosmos-2242 4.4 22:34:22 10° NNE 22:37:13 28° NE 22:37:13 28° NE
Cosmos 2297 3.6 22:38:58 67° S 22:39:42 78° ESE 22:45:25 10° NNE
Cosmos 2058 Rocket 3.2 22:40:03 10° N 22:43:57 71° NNW 22:43:57 71° NNW
Meteor 2-19 Rocket 4.5 22:39:09 10° N 22:45:14 62° E 22:45:58 57° ESE
CZ-2C R/B 3.9 22:40:43 10° NNE 22:44:51 62° ENE 22:44:51 62° ENE
Lacrosse 5 4.4 22:49:37 10° NNW 22:52:46 16° NNE 22:55:55 10° ENE
Gbstr 26 Del rocket 3.6 22:49:51 10° NW 22:54:47 71° NE 22:55:25 64° E
Meteor 2-3 Rocket 3.8 22:56:57 62° E 22:56:57 62° E 23:02:26 10° NNE
Cosmos 2369 Rocket 2.0 22:56:53 82° SE 22:57:02 83° ESE 23:02:41 10° NNE
Cosmos 2082 Rocket 3.4 22:53:56 10° NW 22:58:44 30° WSW 22:59:36 28° WSW
Cosmos 2123 Rocket 3.9 22:54:38 10° N 23:00:58 80° W 23:01:58 64° SSW
Terra 4.3 22:59:18 10° WSW 23:01:05 12° W 23:02:54 10° WNW
Lacrosse 4 Rocket 2.6 23:04:32 36° NNE 23:04:32 36° NNE 23:07:04 10° NNE
Cosmos 1782 4.2 22:59:38 10° N 23:01:56 34° N 23:01:56 34° N
Cosmos 1624 Rocket 4.2 23:05:33 59° ENE 23:05:33 59° ENE 23:10:01 10° NNE
USA 229 DEB 4.0 23:00:18 18° SW 23:04:52 56° NW 23:11:25 10° NNE
USA 229 4.0 23:00:31 18° SW 23:04:58 56° NW 23:11:31 10° NNE
Cosmos 1420 Rocket 3.9 23:05:35 83° NNE 23:05:35 83° NNE 23:10:40 10° NNE
USA 81 4.3 23:03:36 10° N 23:08:23 56° ENE 23:08:23 56° ENE
SeaSat 1 4.3 23:11:05 18° ENE 23:12:10 20° NE 23:15:39 10° N
H-2A R/B 4.1 23:14:16 27° NNE 23:14:16 27° NNE 23:16:19 10° N
Cosmos 1758 Rocket 4.5 23:14:35 43° NNE 23:14:35 43° NNE 23:17:33 10° N
Cosmos 1626 Rocket 4.3 23:14:21 49° NNW 23:14:21 49° NNW 23:17:40 10° N
Cosmos 1934 Rocket 4.4 23:13:11 45° SW 23:14:42 56° W 23:20:46 10° N
Timation 1 Rocket 4.2 23:08:43 10° NNW 23:14:43 77° WSW 23:14:56 76° SW
ARIANE 5 R/B 3.2 23:16:57 55° NW 23:16:57 55° NW 23:20:33 10° NNW
USA 215 3.7 23:16:06 43° SW 23:16:19 43° SW 23:22:31 10° WNW
Cosmos 2251 Rocket 3.8 23:14:04 10° NNW 23:18:58 61° W 23:18:58 61° W
Cosmos 2221 4.4 23:16:31 10° NNE 23:18:49 22° NE 23:18:49 22° NE
Cosmos 2056 Rocket 3.6 23:21:02 74° N 23:21:02 74° N 23:25:50 10° NNE
Cosmos 1238 Rocket 4.0 23:17:22 10° NNW 23:20:30 43° NW 23:20:30 43° NW
Lacrosse 5 rocket 3.6 23:20:50 13° WNW 23:23:06 21° NNW 23:26:04 10° NNE
ALOS 2 3.7 23:29:16 39° NNE 23:29:16 39° NNE 23:32:23 10° N
Meteor 1-26 Rocket 4.4 23:23:47 10° N 23:29:14 65° ENE 23:29:14 65° ENE
Cosmos 2263 4.2 23:29:23 73° W 23:29:33 74° WNW 23:35:19 10° NNE
Spot 4 4.3 23:31:16 60° N 23:31:16 60° N 23:35:18 10° N
Cosmos 1190 Rocket 4.3 23:31:13 10° NNW 23:35:38 61° NW 23:35:38 61° NW
Meteor 2-2 Rocket 4.5 23:34:55 10° NNW 23:40:37 63° W 23:40:37 63° W
Cosmos 676 Rocket 4.3 23:36:24 10° NNW 23:40:50 63° N 23:40:50 63° N
Cosmos 1459 Rocket 4.3 23:50:37 54° E 23:50:37 54° E 23:56:34 10° NNE
SL-19 R/B 4.4 23:45:31 10° NNE 23:51:43 74° E 23:51:43 74° E
